Livermore, CA

7:55 AM PDT on June 29, 2017 (GMT -0700)
Livermore Municipal

Weather History for KLVK - March, 2013

Change the Weather History Date:

Thursday, March 7, 2013

  Actual Average Record
Temperature  
Mean Temperature 46 °F 53 °F  
Max Temperature 57 °F 64 °F 82 °F (1972)
Min Temperature 35 °F 42 °F 25 °F (1964)
Degree Days  
Heating Degree Days 19 12  
Month to date heating degree days 85 84  
Since 1 July heating degree days 2025 2091  
Cooling Degree Days 0 0  
Month to date cooling degree days 0 0  
Year to date cooling degree days 0 0  
Moisture  
Dew Point 38 °F    
Average Humidity 70    
Maximum Humidity 93    
Minimum Humidity 47    
Precipitation  
Precipitation 0.07 in 0.09 in 0.91 in (1935)
Month to date precipitation 0.15 0.65  
Year to date precipitation 1.27 6.69  
Since 1 July precipitation 9.56  
Sea Level Pressure  
Sea Level Pressure 29.92 in    
Wind  
Wind Speed 3 mph (NE)    
Max Wind Speed 13 mph    
Max Gust Speed 16 mph    
Visibility 10 miles    
Events Rain    
T = Trace of Precipitation, MM = Missing Value Source: NWS Daily Summary

Daily Weather History Graph

Daily Weather History Graph

Search for Another Location

Airport or City:

Trip Planner

Search our weather history database for the weather conditions in past years. The results will help you decide how hot, cold, wet, or windy it might be!

Date:

Astronomy

Mar. 07, 2013 Rise Set
Actual Time 6:29 AM PST 6:07 PM PST
Civil Twilight 6:03 AM PST 6:33 PM PST
Nautical Twilight 5:33 AM PST 7:03 PM PST
Astronomical Twilight 5:02 AM PST 7:34 PM PST
Moon 3:29 AM PST (3/7) 2:04 PM PST (3/7)
Length of Visible Light 12h 29m
Length of Day
11h 37m
Waning Crescent, 19% of the Moon is Illuminated
Mar 7
Waning Crescent
Mar 11
New
Mar 19
First Quarter
Mar 27
Full
Apr 2
Last Quarter

Hourly Weather History & Observations

Time (PST) Temp. Windchill Dew Point Humidity Pressure Visibility Wind Dir Wind Speed Gust Speed Precip Events Conditions
12:53 AM 39.9 °F - 36.0 °F 86% 30.00 in 10.0 mi Calm Calm - N/A   Clear
1:53 AM 39.0 °F - 36.0 °F 89% 30.00 in 10.0 mi Calm Calm - N/A   Clear
2:53 AM 37.9 °F - 35.1 °F 89% 29.98 in 10.0 mi Calm Calm - N/A   Clear
3:53 AM 37.9 °F - 35.1 °F 89% 29.97 in 10.0 mi Calm Calm - N/A   Clear
4:53 AM 37.0 °F - 34.0 °F 89% 29.98 in 10.0 mi Calm Calm - N/A   Clear
5:53 AM 37.0 °F 34.5 °F 35.1 °F 93% 29.97 in 10.0 mi ENE 3.5 mph - N/A   Clear
6:53 AM 37.9 °F - 36.0 °F 93% 29.96 in 10.0 mi Calm Calm - N/A   Clear
7:53 AM 39.9 °F 37.8 °F 37.0 °F 89% 29.96 in 10.0 mi West 3.5 mph - N/A   Clear
8:53 AM 43.0 °F - 37.9 °F 82% 29.96 in 10.0 mi Calm Calm - N/A   Clear
9:53 AM 48.9 °F - 37.0 °F 64% 29.96 in 10.0 mi Calm Calm - N/A   Clear
10:53 AM 53.1 °F - 37.0 °F 55% 29.94 in 10.0 mi Calm Calm - N/A   Partly Cloudy
11:53 AM 55.9 °F - 37.0 °F 49% 29.93 in 10.0 mi NNE 3.5 mph - N/A   Scattered Clouds
12:01 PM 55.4 °F - 35.6 °F 47% 29.92 in 10.0 mi Variable 4.6 mph - N/A   Clear
12:02 PM 55.4 °F - 35.6 °F 47% 29.92 in 10.0 mi Variable 3.5 mph - N/A   Scattered Clouds
12:53 PM 55.0 °F - 35.1 °F 47% 29.91 in 10.0 mi ENE 5.8 mph - N/A   Mostly Cloudy
1:53 PM 55.9 °F - 39.0 °F 53% 29.88 in 10.0 mi East 9.2 mph - N/A   Scattered Clouds
2:53 PM 55.0 °F - 39.0 °F 55% 29.88 in 10.0 mi NE 11.5 mph - N/A   Overcast
2:59 PM 55.4 °F - 39.2 °F 54% 29.87 in 10.0 mi NE 9.2 mph - N/A   Mostly Cloudy
3:53 PM 55.0 °F - 37.9 °F 53% 29.86 in 10.0 mi ENE 11.5 mph - N/A   Mostly Cloudy
4:53 PM 53.1 °F - 41.0 °F 64% 29.86 in 9.0 mi ENE 8.1 mph - 0.00 in Rain Light Rain
5:53 PM 53.1 °F - 41.0 °F 64% 29.86 in 10.0 mi NE 6.9 mph - 0.00 in   Overcast
6:53 PM 52.0 °F - 39.9 °F 63% 29.85 in 10.0 mi Calm Calm - N/A   Overcast
7:53 PM 51.1 °F - 39.9 °F 66% 29.86 in 10.0 mi Calm Calm - N/A   Overcast
8:53 PM 50.0 °F - 44.1 °F 80% 29.87 in 10.0 mi Calm Calm - N/A   Overcast
9:53 PM 48.9 °F - 46.0 °F 90% 29.87 in 10.0 mi West 4.6 mph - 0.01 in   Overcast
10:53 PM 48.0 °F - 46.0 °F 93% 29.87 in 6.0 mi Calm Calm - 0.04 in Rain Light Rain
11:53 PM 48.0 °F - 46.0 °F 93% 29.86 in 10.0 mi Calm Calm - 0.02 in Rain Light Rain